[[{"header":{"parameterUnit":"m.s-1","parameterCategory":1,"la1":30.2991,"la2":30.254,"lo1":-89.0895,"lo2":-89.0444,"dy":0.0017,"dx":0.0017,"nx":28,"ny":28,"refTime":"2025-04-13T03:00:00:Z","depth":0,"parameterNumber":2,"parameterNumberName":"U-component_of_WINDS"},"data":[0,0,0,0,0,0,0,0,0,0,0,0,0,0,0,0,0,0,0,0,0,0,0,0,0,0,0,0,0,0,0,0,0,0,0,0,0,0,0,0,0,0,0,0,0,0,0,0,0,0,0,0,0,0,0,0,0,0,-1.8869,-1.8869,0,-1.8903,-1.8903,-1.8903,-1.8912,-1.8912,-1.8911,-1.8911,-1.8945,-1.8946,-1.8947,0,0,0,0,0,0,0,0,0,0,0,0,0,-1.8811,-1.8812,-1.8869,-1.8869,-1.8869,-1.8903,-1.8903,-1.8903,-1.8912,-1.8912,-1.8911,-1.8911,-1.8945,-1.8946,-1.8947,0,0,0,0,0,0,0,0,0,0,0,0,0,-1.884,-1.8812,-1.8868,-1.8878,-1.8879,-1.8902,-1.8903,-1.8904,-1.8912,-1.8912,-1.8911,-1.8911,-1.8944,-1.8946,-1.8948,-1.8964,0,0,-1.8953,-1.8953,0,0,0,0,0,0,0,0,-1.8838,-1.8842,-1.8876,-1.8877,-1.8878,-1.8903,-1.8895,-1.8924,-1.8912,-1.8899,-1.8911,-1.8911,-1.8931,-1.8934,-1.8941,-1.8966,-1.8967,-1.8953,-1.8954,-1.8955,-1.8955,0,0,0,0,0,0,0,-1.8836,-1.884,-1.8882,-1.8876,-1.8878,-1.888,-1.8884,-1.8901,-1.8917,-1.89,-1.8901,-1.8905,-1.8932,-1.8939,-1.8942,-1.8968,-1.8953,-1.8954,-1.8955,-1.8956,-1.9009,-1.901,0,0,0,0,0,0,-1.8832,-1.8839,-1.8881,-1.8883,-1.8857,-1.8881,-1.8885,-1.8895,-1.8916,-1.8919,-1.8905,-1.8905,-1.8937,-1.894,-1.8943,-1.8964,-1.8955,-1.8956,-1.8957,-1.9009,-1.901,-1.901,0,0,0,0,0,0,-1.8831,-1.8836,-1.888,-1.8861,-1.8867,-1.8883,-1.8893,-1.8896,-1.8904,-1.892,-1.8923,-1.891,-1.8937,-1.8941,-1.8959,-1.8966,-1.8957,-1.8958,-1.9009,-1.9009,-1.901,-1.9007,0,0,0,0,0,0,-1.8829,-1.8836,-1.8842,-1.8861,-1.8868,-1.8895,-1.8894,-1.8897,-1.8906,-1.8907,-1.8925,-1.8928,-1.8937,-1.8957,-1.8961,-1.8968,-1.896,-1.9008,-1.9009,-1.901,-1.9006,-1.9007,-1.9008,0,0,0,0,0,-1.8827,-1.8839,-1.8842,-1.8847,-1.8876,-1.8895,-1.8899,-1.8909,-1.8907,-1.8914,-1.8925,-1.8928,-1.8965,-1.8959,-1.8963,-1.8971,-1.9008,-1.9009,-1.9009,-1.9006,-1.9007,-1.9008,0,0,0,0,0,0,-1.882,-1.8842,-1.8845,-1.8864,-1.8878,-1.8897,-1.8905,-1.891,-1.8924,-1.8924,-1.8935,-1.8939,-1.8957,-1.8966,-1.8959,-1.8989,-1.8986,-1.8988,-1.8982,-1.8983,-1.8984,-1.8981,-1.8961,0,0,0,0,0,-1.8821,-1.8835,-1.8853,-1.8868,-1.8875,-1.8889,-1.8898,-1.8904,-1.8919,-1.8924,-1.8937,-1.8951,-1.8966,-1.8975,-1.899,-1.9008,-1.9013,-1.9016,-1.9017,-1.9017,-1.9019,-1.903,-1.9031,-1.9013,-1.9013,-1.9013,0,0,-1.8822,-1.8836,-1.8844,-1.8867,-1.8878,-1.8893,-1.8894,-1.8908,-1.8919,-1.8927,-1.8945,-1.8955,-1.8971,-1.899,-1.8999,-1.8998,-1.9025,-1.9019,-1.9019,-1.902,-1.9031,-1.9033,-1.9034,-1.9014,-1.9014,-1.9014,0,0,-1.8831,-1.8843,-1.8857,-1.8869,-1.8886,-1.8896,-1.8899,-1.8918,-1.8925,-1.8944,-1.895,-1.8963,-1.8988,-1.9,-1.9009,-1.9025,-1.9028,-1.9029,-1.9033,-1.9044,-1.9045,-1.9046,-1.9052,-1.9054,-1.9031,-1.9031,-1.9031,0,-1.8831,-1.8852,-1.8863,-1.8878,-1.8888,-1.8897,-1.8911,-1.8922,-1.8943,-1.895,-1.8949,-1.8981,-1.8993,-1.9015,-1.9019,-1.9026,-1.9031,-1.9026,-1.9044,-1.9045,-1.9047,-1.9052,-1.9054,-1.9031,-1.9031,-1.9031,-1.9031,0,-1.885,-1.8866,-1.8875,-1.8895,-1.8907,-1.8921,-1.8935,-1.8945,-1.8951,-1.8961,-1.898,-1.8995,-1.9013,-1.9019,-1.9024,-1.9042,-1.9041,-1.9042,-1.9039,-1.9048,-1.9053,-1.9056,-1.903,-1.903,-1.903,-1.903,0,0,-1.8855,-1.8883,-1.8886,-1.8896,-1.8916,-1.8928,-1.8943,-1.8961,-1.897,-1.8985,-1.8998,-1.902,-1.9021,-1.9032,-1.9039,-1.9049,-1.906,-1.9049,-1.905,-1.905,-1.9081,-1.9079,-1.9081,-1.9064,-1.9064,-1.9064,-1.9079,0,-1.8866,-1.8894,-1.8905,-1.8927,-1.8941,-1.895,-1.8963,-1.8978,-1.8988,-1.9001,-1.9012,-1.9028,-1.9029,-1.9035,-1.9045,-1.9057,-1.9067,-1.9056,-1.9075,-1.9076,-1.907,-1.9084,-1.9082,-1.9095,-1.9081,-1.9082,-1.9082,0,-1.8883,-1.8899,-1.8922,-1.8942,-1.8948,-1.896,-1.8978,-1.8991,-1.9008,-1.9014,-1.9027,-1.9034,-1.9051,-1.9048,-1.9071,-1.9064,-1.9073,-1.908,-1.9081,-1.9082,-1.9079,-1.9085,-1.91,-1.9101,-1.9085,-1.9085,-1.9085,0,-1.8884,-1.891,-1.8928,-1.8936,-1.896,-1.8968,-1.8978,-1.8995,-1.9005,-1.9021,-1.9028,-1.9045,-1.9055,-1.9068,-1.908,-1.9077,-1.9103,-1.9101,-1.9108,-1.9108,-1.9112,-1.9112,-1.9128,-1.9119,-1.9119,-1.9119,-1.9119,0,-1.8895,-1.8909,-1.8929,-1.8939,-1.8956,-1.8969,-1.8984,-1.8995,-1.901,-1.9023,-1.9033,-1.9045,-1.906,-1.9075,-1.9084,-1.9102,-1.9107,-1.9112,-1.9115,-1.9111,-1.911,-1.9116,-1.9115,-1.912,-1.912,-1.912,-1.9119,0,-1.8898,-1.8911,-1.8931,-1.8952,-1.8958,-1.8969,-1.8987,-1.8998,-1.9009,-1.9026,-1.9031,-1.9048,-1.9065,-1.9079,-1.9102,-1.9108,-1.9127,-1.913,-1.9121,-1.9122,-1.9129,-1.9128,-1.9149,-1.9152,-1.9142,-1.9142,-1.9142,0,-1.8903,-1.8915,-1.8937,-1.8947,-1.8957,-1.8972,-1.8983,-1.8997,-1.9008,-1.9029,-1.9037,-1.9056,-1.9071,-1.9099,-1.9113,-1.9131,-1.9134,-1.914,-1.9136,-1.9133,-1.9133,-1.9132,-1.9133,-1.914,-1.914,-1.914,-1.914,0,-1.8912,-1.8919,-1.8934,-1.8952,-1.8965,-1.898,-1.8995,-1.9002,-1.9019,-1.9031,-1.9049,-1.9061,-1.9085,-1.9103,-1.9123,-1.9134,-1.914,-1.9141,-1.9144,-1.914,-1.9134,-1.9137,-1.9122,-1.9141,-1.914,-1.914,-1.914,-1.914,-1.8917,-1.8927,-1.8945,-1.8962,-1.8975,-1.8989,-1.9,-1.9013,-1.9028,-1.9049,-1.9056,-1.9075,-1.9093,-1.912,-1.9131,-1.9146,-1.9146,-1.915,-1.9151,-1.9151,-1.9151,-1.9133,-1.915,-1.915,-1.915,-1.915,-1.915,0,-1.8926,-1.8938,-1.8953,-1.8974,-1.8988,-1.8993,-1.901,-1.9021,-1.9038,-1.9054,-1.9069,-1.909,-1.9108,-1.9125,-1.9144,-1.9153,-1.9156,-1.9157,-1.9156,-1.9158,-1.915,-1.9145,-1.9154,-1.9154,-1.9154,-1.9154,-1.9154,-1.9154,-1.8932,-1.895,-1.8959,-1.8983,-1.8996,-1.9014,-1.9023,-1.9037,-1.9049,-1.9073,-1.9088,-1.9099,-1.9115,-1.9135,-1.9152,-1.9157,-1.9163,-1.9164,-1.9169,-1.916,-1.9159,-1.9158,-1.9154,-1.9165,-1.9165,-1.9176,-1.9176,-1.9176]},{"header":{"parameterUnit":"m.s-1","parameterCategory":1,"la1":30.2991,"la2":30.254,"lo1":-89.0895,"lo2":-89.0444,"dy":0.0017,"dx":0.0017,"nx":28,"ny":28,"refTime":"2025-04-13T03:00:00:Z","depth":0,"parameterNumber":3,"parameterNumberName":"V-component_of_WINDS"},"data":[0,0,0,0,0,0,0,0,0,0,0,0,0,0,0,0,0,0,0,0,0,0,0,0,0,0,0,0,0,0,0,0,0,0,0,0,0,0,0,0,0,0,0,0,0,0,0,0,0,0,0,0,0,0,0,0,0,0,3.1008,3.1009,0,3.1035,3.1036,3.1036,3.1085,3.1086,3.1087,3.1088,3.1112,3.1112,3.1112,0,0,0,0,0,0,0,0,0,0,0,0,0,3.0998,3.0997,3.1008,3.1009,3.1009,3.1035,3.1036,3.1036,3.1085,3.1086,3.1087,3.1088,3.1112,3.1112,3.1112,0,0,0,0,0,0,0,0,0,0,0,0,0,3.1011,3.0997,3.1008,3.1037,3.1039,3.1035,3.1036,3.1036,3.1085,3.1086,3.1087,3.1089,3.1112,3.1112,3.1112,3.1081,0,0,3.111,3.111,0,0,0,0,0,0,0,0,3.101,3.1011,3.1032,3.1035,3.1038,3.1058,3.1041,3.1051,3.1084,3.1067,3.1088,3.1089,3.1093,3.1094,3.1096,3.1082,3.1083,3.111,3.111,3.111,3.111,0,0,0,0,0,0,0,3.1009,3.101,3.1019,3.1032,3.1036,3.1047,3.1051,3.1043,3.1072,3.1069,3.1073,3.1075,3.1095,3.1096,3.1097,3.1083,3.111,3.111,3.111,3.111,3.1047,3.1046,0,0,0,0,0,0,3.1004,3.1009,3.1018,3.102,3.1027,3.1047,3.105,3.105,3.1072,3.1077,3.1074,3.1077,3.1096,3.1097,3.1098,3.1064,3.111,3.111,3.111,3.1049,3.1047,3.1045,0,0,0,0,0,0,3.1004,3.1005,3.1017,3.1016,3.1018,3.1045,3.1045,3.105,3.1052,3.1076,3.1081,3.107,3.1097,3.1098,3.1085,3.1066,3.111,3.1109,3.105,3.1048,3.1046,3.0996,0,0,0,0,0,0,3.1003,3.1004,3.0993,3.1015,3.1018,3.1004,3.1043,3.105,3.1051,3.1056,3.1074,3.1078,3.1099,3.1086,3.1085,3.1066,3.1109,3.1052,3.1049,3.1047,3.1,3.0993,3.0987,0,0,0,0,0,3.1003,3.0977,3.0992,3.0993,3.1005,3.1003,3.1005,3.103,3.105,3.1039,3.1054,3.1078,3.1068,3.1084,3.1084,3.1064,3.1054,3.105,3.1047,3.1003,3.0994,3.0987,0,0,0,0,0,0,3.095,3.098,3.0998,3.0978,3.0988,3.1011,3.0998,3.1019,3.1023,3.1027,3.1057,3.106,3.1044,3.1053,3.107,3.1037,3.1065,3.1061,3.1031,3.1023,3.1017,3.1015,3.1109,0,0,0,0,0,3.0937,3.0934,3.096,3.094,3.0944,3.097,3.097,3.0989,3.1,3.1004,3.1019,3.1027,3.1027,3.1026,3.1026,3.1002,3.1007,3.0989,3.0982,3.0976,3.0973,3.0962,3.0954,3.1035,3.1035,3.1035,0,0,3.0908,3.0924,3.092,3.093,3.094,3.0935,3.0973,3.0967,3.0964,3.1002,3.0992,3.1003,3.1015,3.0996,3.0989,3.1003,3.0952,3.0972,3.0968,3.0967,3.0958,3.095,3.0943,3.1032,3.1033,3.1033,0,0,3.0854,3.0866,3.0851,3.0861,3.0876,3.0894,3.089,3.0911,3.092,3.091,3.094,3.0936,3.0934,3.0942,3.0945,3.0896,3.0918,3.0896,3.0861,3.085,3.0844,3.0838,3.0821,3.0815,3.0892,3.0892,3.0892,0,3.0816,3.0812,3.0841,3.0833,3.0837,3.0873,3.0859,3.0867,3.088,3.0882,3.0898,3.0898,3.0908,3.0893,3.0881,3.0883,3.088,3.0893,3.0842,3.0837,3.0832,3.0817,3.081,3.0889,3.089,3.089,3.089,0,3.0765,3.0761,3.0748,3.0762,3.0764,3.0753,3.078,3.0779,3.0798,3.0814,3.0803,3.0818,3.0823,3.082,3.0838,3.0807,3.0816,3.0837,3.0866,3.0821,3.0807,3.0801,3.0885,3.0886,3.0887,3.0888,0,0,3.0677,3.0709,3.0703,3.0711,3.0731,3.0729,3.0719,3.0726,3.0724,3.0733,3.0726,3.0724,3.0745,3.0749,3.0768,3.0758,3.0719,3.078,3.0781,3.0769,3.0687,3.0671,3.0664,3.0734,3.0733,3.0732,3.0686,0,3.0627,3.0614,3.0641,3.0621,3.0618,3.0654,3.0646,3.0658,3.0673,3.0672,3.0689,3.0688,3.0714,3.0717,3.0709,3.0725,3.0703,3.0729,3.0727,3.0727,3.0723,3.0656,3.0639,3.0595,3.0681,3.068,3.0679,0,3.0567,3.0574,3.0555,3.0578,3.0577,3.057,3.0578,3.0578,3.0592,3.0603,3.0609,3.0632,3.0625,3.0653,3.0643,3.0661,3.0662,3.067,3.0669,3.0669,3.07,3.0655,3.0582,3.0575,3.067,3.0671,3.0672,0,3.0505,3.051,3.05,3.0505,3.0531,3.0525,3.0535,3.0551,3.0553,3.0561,3.0563,3.0568,3.0571,3.0575,3.06,3.0618,3.0587,3.0617,3.0596,3.0596,3.0588,3.0588,3.0514,3.0588,3.0588,3.0589,3.0589,0,3.0446,3.0433,3.0473,3.0466,3.0452,3.0483,3.0469,3.0483,3.0496,3.0493,3.0524,3.052,3.0552,3.0552,3.0571,3.056,3.0561,3.057,3.0575,3.0568,3.0566,3.0568,3.0572,3.0587,3.0587,3.0588,3.0588,0,3.0375,3.0401,3.0392,3.0418,3.0424,3.0413,3.0436,3.043,3.0448,3.0444,3.0444,3.0472,3.0473,3.0498,3.0504,3.0517,3.0499,3.051,3.0494,3.0498,3.0476,3.0478,3.04,3.0392,3.0472,3.0471,3.047,0,3.0336,3.0327,3.0353,3.0353,3.0363,3.0363,3.0366,3.0397,3.0399,3.0415,3.0408,3.0412,3.0417,3.0417,3.0438,3.0443,3.0454,3.0427,3.0455,3.0448,3.0454,3.0454,3.0454,3.042,3.0419,3.0418,3.0418,0,3.0264,3.0278,3.0282,3.029,3.0294,3.0302,3.0312,3.031,3.0344,3.0345,3.0347,3.0351,3.0359,3.0362,3.0372,3.0382,3.0405,3.0409,3.0405,3.0396,3.0388,3.0393,3.0478,3.041,3.0411,3.0412,3.0412,3.0412,3.0208,3.0202,3.022,3.0223,3.0235,3.0244,3.0241,3.0259,3.0262,3.0271,3.0289,3.0289,3.0304,3.0319,3.0328,3.0328,3.0342,3.0335,3.0334,3.0332,3.0328,3.0388,3.033,3.033,3.033,3.033,3.0331,0,3.0138,3.0151,3.0155,3.0169,3.0172,3.0195,3.0208,3.0209,3.0209,3.0222,3.0226,3.023,3.0234,3.0256,3.0262,3.0258,3.0269,3.0259,3.026,3.0262,3.0314,3.0318,3.025,3.025,3.025,3.025,3.025,3.025,3.0102,3.0093,3.0109,3.0107,3.0121,3.0122,3.0128,3.0136,3.0147,3.015,3.0154,3.0168,3.0185,3.0193,3.0198,3.0205,3.0206,3.0192,3.0201,3.025,3.0258,3.0265,3.0269,3.0192,3.0192,3.0149,3.0149,3.0148]}]]